Location: Unspecified
(49.2170°N, 0.0000°E)
Time: 22:48:37
(UTC+00:00)

Transit 2A - Pass Details

Date: 24 June 2019
Orbit: 600 x 959 km, 66.7° (Epoch: 13 October)

Event Time Altitude Azimuth Distance (km) Brightness Sun altitude
Rises 07:59:34 0° 324° (NW) 3,485 9.1 36.5°
Reaches altitude 10° 08:02:11 10° 326° (NW) 2,492 8.4 36.9°
Maximum altitude 08:07:56 76° 52° (NE) 820 7.1 37.8°
Drops below altitude 10° 08:13:04 10° 139° (SE) 2,232 9.2 38.6°
Sets 08:15:18 0° 140° (SE) 3,096 9.7 39.0°
